Simultaneous Nadir Overpasses (SNOs) Predictions

Prediction of SNOs between METOP-B and NPP Satellite Orbit:

Table of predicted SNOs for the next 14.0 days since TLE Epoch: 5/11/2017
Index Date (METOP-B) Time (METOP-B) Lat,Lon (METOP-B) SZA (METOP-B ) Date (NPP) Time (NPP) Lat,Lon (NPP) SZA (NPP ) Distance(km) Time Diff (sec)
1 05/25/2017 12:48:41 73.47, -18.62 52.43 05/25/2017 12:47:35 73.51, -21.73 52.63 98.48 66
2 05/25/2017 13:39:24 -73.43, 148.62 127.61 05/25/2017 13:38:17 -73.41, 145.82 127.49 88.90 67
3 05/25/2017 14:30:08 73.19, -44.56 52.17 05/25/2017 14:28:58 73.17, -46.33 52.23 56.73 70
4 05/25/2017 15:20:52 -73.10, 122.57 127.92 05/25/2017 15:19:41 -73.12, 121.10 127.83 47.43 71
5 05/25/2017 16:11:36 72.87, -70.60 51.86 05/25/2017 16:10:22 72.87, -71.06 51.90 15.00 74
6 05/25/2017 17:02:19 -72.83, 96.64 128.19 05/25/2017 17:01:05 -72.82, 96.36 128.17 9.36 74
7 05/25/2017 17:53:00 72.74, -96.20 51.73 05/25/2017 17:51:49 72.72, -96.13 51.72 3.20 71
8 05/25/2017 18:43:42 -72.76, 71.15 128.27 05/25/2017 18:42:34 -72.78, 71.08 128.23 3.35 68
9 05/25/2017 19:34:22 72.72,-121.59 51.70 05/25/2017 19:33:19 72.73,-121.51 51.72 2.64 63




NCC Satellite Simultaneous Nadir Overpasses (SNOs) Prediction Service
